Theta_e
321 322 323 324 325 325 326 326 326 327 326 326 326 326 326 326 326 326 326 326 326 326 326 326 326 327 327 326 326 326 325 325 324 324 324 324 324 324 324 324 324 324 323 323 323 323 323 323 323 323 323 323 322 322 322 322 321 320 318 317 316 316 314 312 311 312 309 307 306 304 302 299 296 295 295 293 292 291 291 291 292 292 292 292 290
319 321 322 323 324 325 326 326 326 326 326 326 326 326 326 326 326 326 326 326 326 326 326 327 327 327 327 327 327 326 326 325 325 325 324 325 325 325 325 324 324 324 324 324 324 324 324 323 323 323 323 322 322 322 321 321 320 319 318 316 315 316 314 312 311 310 309 307 303 301 299 297 295 294 293 292 292 291 291 291 292 292 292 292 290
319 320 322 323 323 324 325 325 326 326 326 326 326 326 326 326 327 326 326 326 326 326 326 326 327 327 327 327 326 326 326 325 325 325 325 325 325 325 325 325 325 325 324 325 325 324 324 324 323 323 323 322 321 321 321 320 319 318 318 317 316 316 315 313 310 310 309 306 301 299 298 296 294 294 293 292 291 291 291 291 292 292 292 291 289
318 320 321 322 322 324 324 324 325 325 325 326 326 326 326 326 326 326 326 326 326 326 326 326 326 327 326 326 326 326 326 325 325 325 325 325 325 325 325 325 325 325 325 325 325 325 324 323 323 323 322 321 321 321 320 319 318 318 318 317 316 315 314 312 310 309 308 305 300 297 297 295 294 293 292 291 290 290 290 291 291 291 291 291 289
316 318 320 321 322 323 323 323 324 324 324 325 325 325 326 326 326 326 326 326 325 325 326 326 326 326 326 326 326 325 325 325 325 325 325 325 325 325 325 325 325 325 325 325 325 325 324 323 323 323 322 321 321 321 319 319 317 316 316 315 315 314 312 310 308 307 305 303 299 296 294 293 292 292 291 290 290 289 289 290 290 290 290 290 289
313 316 318 320 321 322 323 323 323 324 324 324 324 324 324 325 325 325 325 325 325 325 325 325 325 325 325 325 325 325 325 325 325 325 325 324 325 325 325 325 325 325 325 324 324 324 324 324 323 323 322 321 321 320 319 318 317 316 315 315 314 312 309 307 306 304 303 301 299 296 294 292 291 290 290 290 289 289 289 289 289 290 290 289 289
310 312 315 318 320 320 321 322 322 323 323 323 324 323 324 324 324 324 325 324 324 324 324 325 325 325 325 325 325 325 325 325 325 325 325 324 324 324 324 324 324 324 324 324 324 324 324 324 323 323 322 321 320 319 319 318 318 316 315 314 312 309 306 304 303 302 301 298 296 295 294 292 290 289 289 289 288 288 289 288 288 289 290 289 289
309 310 312 314 316 317 319 321 321 322 322 322 322 322 322 323 323 323 323 324 324 324 324 324 324 325 325 325 325 325 325 325 325 324 324 324 323 323 323 324 324 324 324 324 324 324 323 323 322 322 321 320 319 318 319 318 317 315 314 313 311 308 306 304 302 300 298 296 294 293 292 290 289 288 288 287 286 287 289 289 289 289 290 289 289
309 309 310 311 312 313 315 317 318 319 319 319 320 320 320 320 321 322 322 323 323 323 324 324 324 324 324 325 325 325 325 324 324 324 323 323 324 323 323 323 323 323 323 323 323 322 322 322 321 320 320 319 319 318 318 317 315 314 313 311 309 306 304 302 300 297 295 293 291 291 290 288 288 287 287 287 288 290 290 289 288 289 288 287 288
309 309 309 309 310 311 312 314 316 316 316 317 317 318 318 319 319 320 320 321 321 322 322 323 323 323 324 324 324 324 324 324 323 323 322 322 323 323 322 322 323 322 322 322 321 321 321 320 320 319 319 318 318 317 316 315 313 312 311 310 308 306 303 300 298 296 294 292 291 290 289 288 288 288 288 289 290 290 289 288 288 288 286 286 288
308 308 309 309 309 310 310 311 312 313 314 315 316 316 316 317 318 318 319 319 320 321 321 322 322 322 322 323 323 322 322 322 322 322 321 321 322 323 323 322 322 321 321 321 320 320 319 318 317 317 318 318 316 315 313 312 311 309 307 307 307 306 305 302 299 297 295 293 292 291 289 289 289 289 289 289 289 289 288 288 288 287 286 286 288
307 307 308 308 308 309 309 309 309 310 311 313 314 314 314 314 315 316 317 318 318 319 319 319 320 320 320 321 321 321 322 322 322 321 321 321 321 321 321 321 321 320 320 320 320 318 317 316 316 317 317 317 315 312 311 310 309 308 306 306 305 305 305 304 302 301 298 296 293 291 290 290 290 289 289 289 289 289 288 287 287 287 286 286 288
306 306 306 306 307 307 308 308 308 309 310 310 311 311 310 311 312 313 314 315 315 315 316 316 317 318 319 320 320 321 321 321 320 320 320 320 320 320 320 321 320 319 319 319 318 317 316 315 315 315 315 314 312 311 310 309 309 307 306 305 304 304 304 303 303 302 301 299 296 294 294 293 291 290 290 290 289 288 287 286 287 287 287 287 289
306 306 306 305 306 307 307 307 308 308 309 309 308 308 308 309 310 311 312 313 313 314 315 315 316 317 318 318 319 319 319 319 319 319 319 320 320 320 320 320 319 318 318 317 316 315 315 314 314 313 312 311 310 309 309 308 308 306 305 305 304 304 303 303 302 301 299 298 297 296 296 295 292 291 290 289 289 289 288 288 288 287 287 288 289
305 306 306 305 306 307 307 307 307 307 307 307 306 307 308 309 310 311 312 312 313 315 315 316 317 318 318 318 318 318 318 319 319 319 320 319 319 319 318 318 317 317 315 314 314 314 313 313 312 311 310 309 308 307 307 307 306 306 305 304 304 303 303 303 302 300 298 296 295 295 294 293 291 289 288 288 288 288 288 288 288 288 287 287 287
304 305 306 306 305 307 308 307 307 307 306 305 306 307 308 309 310 311 312 312 313 314 314 315 316 317 317 317 317 317 318 318 318 318 318 317 317 317 316 316 315 314 313 312 312 312 312 311 310 309 308 307 307 306 306 306 305 305 304 303 303 303 303 302 299 297 295 293 292 291 290 289 288 287 287 288 287 287 287 287 287 287 286 286 286
305 305 306 306 305 306 307 308 307 306 306 305 306 307 307 308 309 310 310 310 311 311 312 312 313 314 315 316 316 316 316 316 317 317 316 316 315 314 314 313 312 312 311 311 311 311 310 309 308 307 306 307 307 307 306 305 304 303 302 301 301 301 300 299 296 294 291 290 289 289 288 288 287 287 287 287 287 287 287 286 287 286 286 285 285
304 305 307 308 307 305 306 307 306 306 306 306 306 306 307 307 308 308 308 307 307 307 308 309 310 311 312 313 314 315 315 315 315 315 315 314 313 313 313 312 311 310 310 310 310 309 308 306 305 305 306 306 307 307 306 305 304 303 301 299 298 298 298 296 294 292 289 288 288 288 288 288 288 287 287 287 287 287 286 286 287 286 285 285 285
305 308 309 308 307 304 304 305 306 306 306 306 306 306 306 306 305 305 304 304 304 304 305 306 307 308 310 311 311 312 312 312 313 313 313 312 311 311 311 310 309 308 308 308 308 307 306 305 304 304 305 305 306 306 305 304 302 301 300 298 297 297 297 295 293 290 289 288 287 287 287 287 287 287 287 286 286 286 286 286 286 285 285 285 284
307 309 309 307 306 304 304 304 305 305 306 306 305 305 305 304 304 303 302 301 302 303 304 305 306 307 308 309 310 310 310 310 311 311 310 310 310 310 310 310 309 307 306 307 307 305 304 304 304 303 304 303 303 302 301 300 299 298 298 297 296 296 294 292 290 289 288 287 287 287 287 287 286 286 286 286 286 286 285 285 285 284 284 284 283
307 307 306 305 305 304 304 305 305 305 305 305 304 304 304 303 302 301 300 300 301 302 304 304 305 306 307 307 308 308 308 309 309 308 308 308 308 308 309 309 309 308 307 307 307 306 304 303 302 302 301 301 300 298 298 297 297 296 295 294 293 291 290 289 288 287 287 286 286 286 286 286 286 286 286 286 285 285 285 285 284 284 283 283 282
306 304 304 304 304 304 304 305 305 304 303 303 303 303 302 302 301 300 300 300 300 301 302 303 303 304 304 305 305 306 306 306 306 306 307 306 307 307 307 307 308 308 307 306 306 305 304 303 301 300 299 298 297 296 296 295 294 293 292 290 289 288 287 287 287 286 286 285 285 285 285 285 285 285 285 285 285 285 284 284 284 284 283 283 282
305 303 303 303 302 303 303 303 302 302 301 301 302 301 300 300 299 299 300 300 300 300 300 300 301 301 301 301 302 303 304 305 305 305 306 306 306 306 306 306 307 307 308 308 306 304 302 300 299 298 297 296 296 295 293 293 292 290 288 288 287 287 286 286 286 285 285 285 285 285 285 284 284 284 284 284 284 284 284 284 283 283 283 283 282
303 301 302 302 302 302 302 301 300 300 300 301 301 300 299 299 298 299 299 300 299 298 298 298 298 298 297 298 299 300 302 303 304 305 305 305 305 304 304 304 304 304 305 306 304 301 300 298 297 296 296 294 293 292 291 290 289 288 287 286 286 286 286 286 285 285 285 285 284 284 284 284 284 284 283 283 283 283 283 283 283 282 282 282 282
301 301 301 301 301 301 300 299 298 299 299 300 299 299 298 298 297 298 298 298 298 297 296 296 296 295 295 295 296 297 299 300 301 302 302 303 302 301 301 301 300 300 301 301 300 298 298 297 295 295 293 292 290 289 288 287 287 286 286 286 285 286 286 285 285 285 284 284 284 284 284 283 283 283 283 283 283 282 282 282 282 282 281 281 281
300 300 300 300 300 299 298 297 297 298 299 299 299 298 297 297 296 296 296 297 297 296 295 295 295 295 294 294 294 296 297 298 299 299 299 299 299 298 298 298 297 297 297 297 296 295 295 294 293 292 290 289 288 288 287 286 285 285 285 285 285 285 285 285 285 285 284 284 284 283 283 283 283 283 283 283 283 282 282 282 281 281 280 280 280
300 299 299 299 298 297 296 296 296 296 297 298 298 297 297 297 296 295 295 296 296 296 295 295 294 294 294 293 293 293 294 295 296 297 297 297 296 296 296 295 295 294 294 294 293 293 292 290 289 288 287 287 286 286 285 285 285 285 285 285 285 285 285 285 285 284 284 284 284 283 283 283 283 282 282 282 282 282 281 281 281 280 280 279 279
299 298 298 297 296 296 296 296 295 296 296 296 296 296 296 296 296 296 296 297 297 296 295 295 295 295 294 293 292 291 291 292 294 296 297 296 295 294 294 294 293 293 293 293 292 290 289 288 286 286 286 285 285 284 284 284 284 284 284 284 284 285 285 285 285 284 284 283 283 282 282 281 281 281 281 281 281 280 280 280 280 280 279 278 278
297 297 296 296 295 295 295 295 295 295 295 295 296 296 296 296 296 296 297 298 299 298 297 296 296 297 296 295 294 292 290 292 295 297 297 298 297 296 295 294 293 293 293 292 290 288 286 286 285 285 285 284 284 283 283 283 284 284 284 284 284 284 284 283 283 283 282 282 281 280 280 280 280 280 279 279 279 278 278 278 278 278 278 277 277
296 295 295 295 294 294 294 295 295 295 294 294 294 295 295 296 296 297 297 298 299 301 301 300 300 300 299 298 299 298 298 299 300 299 297 297 296 296 296 295 294 293 291 291 290 288 286 285 284 284 284 284 283 283 283 283 283 283 283 283 283 283 283 283 282 281 281 281 280 279 279 279 279 279 278 278 278 277 277 277 277 277 277 276 276
294 294 294 294 294 294 294 294 294 294 294 294 293 293 293 293 294 296 298 299 299 300 301 302 302 303 302 301 300 300 302 303 302 300 298 296 294 294 294 293 293 292 291 290 289 287 285 284 284 283 284 284 283 283 283 283 283 282 282 282 282 282 282 282 282 281 281 280 280 280 279 279 278 278 278 277 277 276 276 276 276 276 276 276 276
294 294 294 294 294 294 294 294 294 294 293 293 293 292 291 291 291 292 294 296 297 297 298 300 301 301 301 301 300 299 299 299 298 298 298 296 294 293 293 292 291 290 290 289 288 286 284 284 283 283 283 283 283 283 283 282 282 282 282 282 282 281 281 281 281 281 281 281 280 280 280 279 279 278 278 277 276 276 276 276 276 276 276 275 275
293 294 294 294 294 294 294 293 293 293 293 292 292 291 290 290 289 289 290 292 293 294 295 296 298 299 298 299 300 300 299 298 296 296 295 294 292 292 291 290 289 288 288 287 286 285 284 284 284 283 283 283 283 282 282 282 282 282 281 281 281 281 281 281 281 281 280 280 280 280 279 279 279 278 278 278 277 276 276 276 276 276 276 275 275
292 293 293 293 293 293 293 293 293 293 292 292 292 291 291 290 289 288 287 288 289 290 291 292 294 296 296 295 296 297 298 297 296 295 293 292 291 291 290 288 287 287 286 287 286 285 284 284 283 283 283 282 282 282 282 281 281 281 281 281 281 281 280 280 280 280 280 280 279 279 279 279 278 278 278 277 277 277 277 276 276 276 275 275 275
292 292 293 293 293 293 293 293 293 292 292 291 291 291 291 290 289 287 287 287 286 286 286 287 289 291 293 294 294 295 295 295 294 292 291 290 289 289 288 286 285 284 285 286 285 284 284 283 282 282 282 281 281 281 281 281 280 280 280 280 280 280 280 279 279 279 279 279 278 278 278 278 277 277 277 277 277 277 276 276 276 276 275 275 275
291 292 292 293 293 293 293 293 292 292 292 291 291 291 290 289 288 287 287 286 285 284 284 284 285 287 289 291 292 292 292 291 290 289 288 288 288 287 286 285 284 284 284 284 284 284 283 283 282 281 281 280 280 280 280 280 279 279 279 279 278 278 278 278 278 278 278 277 277 277 277 276 276 276 276 276 276 276 275 275 275 275 275 274 274
290 291 292 292 292 292 292 292 292 292 291 291 290 290 289 288 288 287 286 285 284 283 283 283 284 284 285 286 287 287 287 287 286 286 286 286 286 286 285 284 283 283 283 283 283 283 282 281 281 280 280 279 279 279 279 279 278 278 278 277 277 277 277 277 277 276 276 276 276 275 275 275 275 275 275 275 275 274 274 274 274 274 274 273 273
289 290 290 291 291 291 291 291 291 290 290 290 289 289 288 287 286 286 285 283 282 282 282 283 283 283 283 284 284 284 284 284 284 285 285 285 285 285 284 283 283 283 282 282 282 282 281 280 280 279 279 279 279 278 278 278 277 277 277 277 276 276 276 276 276 275 275 275 275 274 274 274 274 274 274 274 273 273 273 273 273 272 272 272 272
287 288 289 290 290 290 290 289 289 289 289 288 288 287 286 285 285 284 283 282 281 281 281 282 282 282 282 283 284 284 284 283 283 284 284 284 284 284 284 283 282 282 282 281 280 280 279 279 279 279 279 278 278 278 277 277 277 276 276 276 276 276 276 275 275 275 275 274 274 273 273 272 272 272 272 272 272 272 272 272 272 272 272 272 272
286 287 288 288 288 288 288 288 288 287 287 286 286 285 285 284 283 282 281 281 280 280 280 280 280 281 282 283 283 283 283 282 282 282 283 282 282 283 283 282 282 281 281 280 279 279 279 279 278 278 278 278 277 277 277 277 276 276 276 276 275 275 275 275 274 274 274 273 273 272 271 270 270 270 271 271 271 271 271 271 271 271 271 271 271
285 286 286 286 287 287 287 286 286 286 286 285 285 284 283 283 282 281 281 280 279 278 278 278 279 280 281 281 282 283 282 281 281 281 281 281 281 282 282 282 282 281 280 280 279 279 279 278 278 278 278 277 277 276 276 276 276 276 275 275 275 274 274 273 273 273 272 272 272 271 270 269 269 269 269 269 269 269 270 270 270 270 270 269 269
284 284 285 285 285 285 285 284 284 284 284 283 283 283 282 282 281 280 279 278 277 277 276 276 277 278 279 279 280 281 281 280 280 280 280 280 280 281 281 281 281 281 280 280 280 279 279 278 278 277 277 276 276 276 276 275 275 275 274 274 273 273 272 272 272 271 271 271 271 270 269 269 268 268 268 268 268 268 268 268 268 268 268 268 268
283 283 283 283 283 283 283 283 283 282 282 282 282 281 281 280 279 279 278 277 276 276 275 275 275 276 277 278 279 280 280 279 279 279 280 280 280 280 280 280 280 279 279 279 278 278 278 277 277 276 276 275 275 275 275 274 274 274 273 273 272 272 272 271 271 270 270 270 270 269 269 268 268 267 267 267 266 266 267 267 267 267 267 267 267
281 281 281 281 281 281 281 281 281 281 280 280 280 279 279 278 277 277 276 275 274 274 274 274 274 275 275 276 278 278 278 278 278 278 279 279 279 279 279 278 278 278 277 277 277 276 276 276 275 275 275 275 274 274 274 273 273 273 272 272 272 271 271 270 270 270 270 269 269 269 268 268 268 268 267 267 265 265 265 266 266 266 267 267 267
280 280 280 279 279 279 279 279 279 279 279 278 277 277 277 276 276 275 274 274 273 273 273 273 274 274 274 275 276 277 277 277 277 277 277 277 277 277 277 277 277 276 276 276 276 275 275 275 275 274 274 274 273 273 273 272 272 272 272 271 271 270 270 269 269 269 269 269 269 268 268 268 268 267 267 266 264 264 264 265 265 266 266 266 266
278 278 278 278 277 277 276 276 277 277 276 276 275 275 275 275 274 274 273 273 273 273 272 272 273 274 274 275 276 276 276 276 276 276 276 276 276 276 275 275 275 275 275 275 274 274 274 274 273 273 273 273 272 272 271 271 271 271 270 270 270 269 269 269 268 268 268 268 268 268 268 268 267 267 266 265 263 263 263 264 264 264 265 265 265
277 276 276 276 275 275 275 275 275 275 275 275 274 274 273 273 273 272 273 273 272 272 272 272 273 273 274 275 275 275 275 275 275 275 275 275 275 275 275 274 274 274 274 273 273 273 272 272 272 272 272 271 271 270 270 270 269 269 269 269 269 268 268 268 268 268 268 268 268 268 267 267 267 266 265 264 264 263 263 263 263 263 264 264 264
275 275 275 274 274 274 273 273 273 273 273 273 273 272 272 272 272 272 272 272 272 272 272 272 272 273 274 274 275 275 275 275 275 274 274 274 274 274 273 273 273 273 272 272 272 272 271 271 271 270 270 270 269 269 269 269 268 268 268 268 268 268 267 267 267 267 268 268 267 267 267 266 266 265 265 264 263 263 262 262 262 262 263 263 263
273 273 273 273 273 273 272 272 272 272 272 272 272 271 271 271 271 271 271 271 271 272 272 272 272 273 273 273 274 274 274 274 274 273 273 273 273 272 272 272 271 271 271 271 271 270 270 270 270 269 269 269 268 268 268 268 268 267 267 267 267 267 267 267 267 267 268 268 268 267 266 266 265 264 264 263 263 262 262 262 262 262 262 262 263
273 273 273 272 272 272 272 271 271 271 271 271 271 270 270 270 270 270 271 271 270 271 271 272 272 273 273 273 273 273 273 273 273 273 272 272 272 271 271 270 270 270 269 269 269 269 269 269 269 268 268 268 268 268 267 267 267 267 267 267 267 267 267 267 267 267 268 268 267 266 266 265 264 263 262 262 262 262 262 262 262 261 261 262 262
272 272 272 271 271 271 271 271 270 270 270 271 271 270 270 269 269 269 270 271 270 270 271 271 272 272 272 272 272 272 272 272 272 271 271 271 270 270 270 269 269 269 268 268 268 268 268 268 267 267 267 267 267 267 267 267 267 267 266 266 266 266 267 267 267 267 267 267 266 266 265 264 264 263 262 262 261 261 261 261 261 261 261 262 262
Wind_Speed
32 34 35 36 36 37 38 39 39 39 39 39 37 38 39 38 37 37 35 34 34 32 32 31 31 30 30 30 30 29 29 29 28 28 30 31 32 32 32 33 34 34 33 33 33 33 33 34 35 36 36 34 35 35 36 36 35 35 34 34 35 35 33 26 16 12 17 20 20 20 22 25 27 30 34 36 35 33 30 27 25 25 24 22 19
31 33 33 33 35 37 37 36 36 37 37 36 36 37 38 37 37 35 34 34 33 32 32 31 31 30 31 31 31 31 31 30 29 29 30 32 33 33 34 34 34 34 33 33 33 33 34 35 35 36 35 34 34 34 34 34 34 33 33 33 34 36 34 30 22 15 16 20 20 19 20 23 26 28 32 35 36 34 31 28 27 26 25 23 21
29 29 30 31 33 34 34 34 34 34 34 35 36 37 38 37 36 35 34 34 33 32 32 32 31 31 31 32 32 32 31 31 30 31 32 33 33 34 34 34 34 34 34 34 34 34 34 35 35 35 34 33 34 34 33 33 32 31 32 33 34 36 36 32 26 20 18 18 18 19 20 22 25 28 30 33 34 32 30 29 28 26 25 24 22
25 26 28 30 31 32 33 34 34 34 35 36 37 37 37 37 36 35 34 34 33 33 33 33 32 33 33 33 33 32 32 32 31 32 33 33 33 33 34 35 35 35 35 34 34 34 34 35 35 35 33 32 32 32 31 30 30 31 31 33 34 35 35 33 30 25 19 15 16 19 22 22 24 26 28 29 31 31 29 28 27 27 26 25 23
23 25 27 29 30 31 33 34 34 36 37 37 37 37 36 36 35 35 34 34 34 34 33 33 34 34 34 34 34 33 33 32 32 33 32 32 33 34 34 34 34 34 34 34 34 34 34 33 33 32 31 31 31 30 30 30 29 30 30 31 33 34 33 31 30 27 21 16 16 18 20 21 22 24 26 28 30 30 29 28 28 27 27 26 25
23 25 27 28 30 32 33 34 34 36 36 36 36 36 35 35 35 35 35 34 34 34 34 34 35 35 35 35 34 34 32 32 32 30 30 33 34 35 34 33 33 33 33 33 33 33 32 31 31 31 31 31 31 30 29 28 27 27 28 29 31 31 30 28 27 26 24 20 18 17 19 21 22 23 24 26 29 30 29 29 29 29 28 28 28
23 25 27 29 31 32 33 34 34 35 35 35 35 34 34 34 34 35 35 34 34 34 34 35 35 35 34 34 34 34 33 33 32 29 30 33 34 33 33 32 31 31 31 30 30 30 31 30 30 30 30 29 29 28 26 24 24 25 26 27 29 29 28 27 24 23 23 22 19 18 19 21 21 21 22 23 25 27 28 28 30 31 31 30 30
24 25 26 28 31 32 33 32 33 33 33 33 33 33 33 33 33 33 33 33 34 35 35 34 34 34 34 34 34 33 33 33 32 32 34 33 31 30 30 30 29 30 29 28 28 28 28 28 28 27 26 25 24 23 22 22 22 23 25 26 27 27 27 26 23 21 22 21 19 18 18 19 20 19 18 20 23 27 30 31 32 32 31 31 30
25 25 27 29 31 31 30 30 30 31 31 31 32 32 32 31 31 31 32 33 33 33 34 33 33 33 33 33 33 32 33 34 35 34 32 30 28 28 28 27 27 28 27 27 27 27 26 25 25 23 21 20 20 20 20 20 20 22 23 24 25 25 25 23 21 20 19 19 18 17 17 18 21 21 21 24 28 30 30 31 33 32 27 26 28
26 27 29 30 30 28 28 28 28 28 29 30 31 30 30 30 30 30 31 32 31 31 32 32 33 33 34 33 34 34 34 34 31 28 26 25 26 27 27 26 25 25 26 26 25 25 25 25 23 21 18 17 18 18 17 17 18 19 20 21 21 22 22 21 20 19 19 19 20 20 20 21 24 27 28 29 30 29 26 28 32 30 24 21 24
28 29 31 30 28 27 26 26 27 27 28 29 29 29 29 29 29 30 30 30 30 30 30 31 32 32 32 32 32 32 30 28 26 25 25 27 26 26 26 25 24 24 24 23 23 24 24 22 20 17 16 16 16 15 14 14 15 16 18 18 18 19 20 20 21 21 21 21 21 22 24 25 26 29 30 29 29 30 28 27 28 27 23 18 17
28 30 31 29 27 26 26 26 26 26 27 27 28 28 28 28 29 29 29 29 28 28 28 29 29 29 28 28 27 27 27 26 25 26 26 25 24 22 22 21 22 22 22 21 22 22 21 20 18 16 15 16 15 13 13 12 13 14 16 17 17 17 18 19 21 21 22 23 23 23 26 27 26 28 30 30 29 30 28 26 25 25 24 22 19
28 29 29 28 27 26 25 25 25 26 26 26 25 25 25 26 27 27 27 26 25 26 26 26 26 25 25 25 26 27 26 25 24 23 22 21 21 20 19 18 18 19 19 19 19 19 19 18 17 15 15 15 14 13 12 11 11 12 14 15 16 17 17 19 21 22 22 23 24 26 27 27 27 28 30 30 28 26 26 26 27 26 24 25 25
27 27 27 27 27 26 24 25 26 26 25 24 23 23 23 24 25 25 24 24 24 24 24 24 24 24 24 25 24 23 23 23 23 23 21 21 21 20 19 17 16 16 17 18 18 18 17 16 15 14 14 15 14 12 12 11 11 11 13 14 16 17 18 20 21 22 23 23 24 26 26 27 27 27 26 25 25 25 25 27 28 28 27 26 26
26 26 26 27 27 26 25 26 26 25 25 24 23 24 24 24 24 24 23 24 24 24 23 24 24 23 23 25 24 21 20 20 20 21 21 20 20 20 18 17 17 18 17 17 17 15 14 14 14 14 15 14 12 11 10 10 10 11 12 14 15 16 18 19 20 21 23 23 23 24 24 25 25 23 21 20 19 20 22 23 24 23 24 23 23
24 25 27 28 29 28 27 27 27 26 25 25 25 26 26 25 25 24 24 24 23 23 23 23 23 23 23 23 23 22 21 20 20 19 20 20 20 19 18 18 19 19 18 17 15 14 15 15 16 15 14 12 11 10 9 10 10 11 12 14 15 15 16 17 18 19 21 21 21 20 21 21 20 19 19 18 17 17 18 19 19 19 19 18 19
26 27 29 30 31 29 28 28 28 27 27 27 28 29 28 26 26 25 24 24 23 23 23 22 22 22 22 23 23 23 23 22 22 22 21 22 22 21 20 19 19 18 18 17 15 15 16 17 16 15 13 13 12 12 12 12 12 13 14 15 15 15 15 15 16 17 19 20 21 20 19 19 18 17 17 17 17 17 16 17 19 19 18 15 14
28 29 31 34 33 31 30 30 29 29 29 30 31 30 29 28 27 25 24 24 23 23 22 21 21 21 22 23 23 22 22 23 23 24 24 24 23 23 22 21 20 20 19 18 17 17 17 17 16 15 14 14 15 15 15 15 15 15 15 15 15 15 14 13 14 15 17 19 20 20 20 19 19 18 17 17 16 17 17 17 18 18 19 18 15
31 34 36 37 35 33 31 31 31 31 32 32 32 31 30 29 27 26 25 25 24 22 21 21 22 22 23 23 23 22 22 21 22 23 23 23 23 23 23 22 22 22 22 21 20 19 18 18 17 16 15 15 16 16 16 15 14 14 13 14 14 13 12 12 13 14 15 17 18 18 18 19 18 17 17 16 16 16 16 16 16 16 18 20 18
37 39 38 36 34 33 32 32 33 33 34 33 32 31 30 29 27 26 25 24 23 22 23 23 23 23 23 23 23 23 23 22 22 22 22 22 22 22 22 23 24 24 23 22 22 21 20 19 18 17 16 15 15 15 14 13 12 12 12 12 12 10 10 11 11 12 13 14 15 15 15 15 15 15 15 15 15 15 15 15 17 17 18 18 16
39 39 36 34 34 34 34 35 35 36 35 33 31 30 30 29 28 26 25 25 24 23 24 24 24 24 23 23 22 22 22 21 21 21 20 20 20 20 21 22 23 23 23 23 22 22 22 21 19 17 16 14 14 13 13 12 11 11 10 10 9 9 9 9 9 9 10 11 12 12 12 12 12 12 13 13 14 14 14 15 16 17 18 18 16
40 36 34 34 34 35 35 36 37 36 34 31 30 30 29 28 27 26 26 26 25 24 24 24 24 23 22 21 21 21 20 20 20 20 20 20 19 20 21 20 21 21 22 23 22 22 21 20 19 17 16 15 14 13 13 12 12 11 10 10 9 8 7 7 7 8 8 8 9 10 10 10 10 11 11 12 12 13 14 14 15 15 16 17 17
38 34 33 34 34 34 35 36 35 34 33 31 30 29 28 27 26 26 27 26 25 25 24 23 22 21 20 20 20 21 21 21 21 21 21 22 22 22 22 21 21 22 22 23 24 22 20 19 18 17 17 16 15 14 13 13 12 11 11 10 8 7 7 7 7 7 8 8 8 8 8 8 8 9 9 9 10 10 11 12 13 14 14 15 16
33 32 33 34 34 35 35 34 33 33 32 31 30 28 27 27 27 28 28 27 26 25 24 24 23 21 21 20 20 21 22 22 22 23 23 23 24 24 22 21 21 21 21 23 24 23 21 20 19 18 18 17 15 15 13 12 11 11 10 9 8 7 7 7 7 7 7 7 7 7 6 6 6 6 7 7 7 8 8 9 10 11 12 13 14
29 31 32 33 34 34 32 31 31 32 32 32 31 30 30 29 29 29 29 28 27 25 24 24 23 21 21 21 20 21 22 22 23 23 23 24 24 23 22 20 20 20 19 20 22 22 21 20 19 18 17 16 15 14 13 12 11 10 10 9 8 8 7 7 7 7 6 6 5 5 4 4 4 4 4 4 5 6 7 7 8 9 10 11 12
28 31 31 32 32 30 28 28 29 30 31 32 32 31 31 31 30 29 29 28 27 26 25 24 23 21 21 21 21 21 22 22 23 23 23 23 23 22 21 20 20 19 19 20 21 21 20 19 18 17 16 15 15 14 14 13 12 11 10 9 8 7 6 6 6 5 5 4 3 2 2 2 2 2 3 3 4 5 5 6 7 7 8 9 10
29 29 29 29 28 27 27 27 27 28 29 30 30 29 30 30 29 29 29 28 26 25 25 25 24 22 21 21 21 21 22 23 24 24 24 24 23 22 22 21 21 20 21 22 21 20 20 19 18 17 17 16 15 15 15 15 14 12 11 9 8 7 6 5 5 5 5 4 3 2 2 1 1 2 3 3 4 5 5 6 7 7 8 9 9
27 27 26 25 25 25 26 26 26 26 27 28 29 29 30 31 30 31 32 32 30 28 27 26 26 25 24 22 20 19 19 22 25 27 27 27 26 25 24 23 23 24 24 24 22 21 20 19 19 18 18 18 17 17 16 15 14 13 12 11 10 9 8 7 7 6 6 5 4 4 2 1 1 2 3 3 4 4 5 6 6 7 8 8 8
25 24 23 22 22 23 24 25 26 26 27 27 28 28 30 32 31 30 31 33 33 32 30 29 28 28 27 26 24 21 20 23 27 29 29 29 29 28 27 27 26 25 25 24 23 22 21 20 20 19 19 19 19 18 17 16 15 13 12 11 11 10 9 8 7 6 5 5 4 3 2 1 2 3 3 3 3 4 4 5 6 6 7 7 7
22 21 20 21 22 23 23 25 26 26 26 26 26 25 26 28 30 29 29 30 31 31 30 29 29 30 30 30 29 27 25 26 27 27 28 29 29 29 29 28 26 25 24 23 22 22 22 21 21 21 20 20 20 19 17 17 16 15 13 11 10 10 8 7 6 5 4 4 3 2 2 2 2 2 3 3 3 4 4 4 5 5 6 7 6
20 19 19 20 22 23 24 24 24 25 25 25 25 24 22 21 23 25 27 28 28 29 29 28 29 30 31 31 30 28 27 27 28 28 27 28 27 27 26 25 24 24 24 23 22 22 23 23 22 21 20 20 20 19 18 17 16 16 14 12 11 9 8 7 6 5 4 4 3 3 2 2 2 2 2 1 2 3 3 4 4 5 6 7 7
20 19 19 20 21 23 23 23 23 23 23 23 24 24 23 20 17 16 20 24 26 26 27 27 27 28 30 30 29 28 26 27 30 30 28 27 26 25 24 23 23 23 23 22 22 23 24 24 23 22 20 20 19 18 18 17 16 15 15 14 12 10 9 8 7 5 5 4 3 3 2 1 1 1 1 1 2 3 3 4 5 6 6 7 8
21 19 18 19 20 21 22 22 22 23 23 23 23 23 24 23 19 16 15 17 19 21 23 23 24 25 27 27 28 27 26 27 29 29 28 27 26 25 24 23 23 23 23 23 23 24 24 23 23 22 20 20 20 18 17 17 16 15 15 14 14 12 10 8 7 6 5 4 4 3 2 1 1 0 1 2 3 3 4 6 7 7 8 8 9
21 20 18 18 19 20 21 21 22 22 23 23 23 22 21 22 22 21 19 16 14 14 16 17 20 23 24 24 24 24 25 27 28 28 27 27 26 26 25 24 23 23 22 22 23 24 23 22 22 21 20 20 19 18 18 17 16 15 15 14 13 11 9 8 7 6 5 5 4 3 3 2 1 1 2 3 4 5 6 7 8 8 9 9 9
20 21 19 19 19 19 20 21 22 22 22 22 23 22 20 20 21 21 19 17 15 14 13 14 16 20 22 22 22 22 24 26 27 26 26 26 26 27 27 25 22 21 20 21 23 24 24 23 22 21 20 20 19 18 17 16 15 14 14 13 12 10 9 8 7 6 5 5 4 4 3 2 2 3 3 4 5 6 7 8 9 9 10 10 10
19 20 19 19 20 20 20 21 22 22 22 23 22 21 21 22 22 21 19 18 17 17 18 17 17 18 20 21 22 23 24 25 26 26 26 26 27 28 27 25 22 21 21 21 23 23 23 23 22 20 19 18 17 16 15 14 13 13 12 11 11 10 9 8 7 6 6 5 5 4 4 3 3 3 4 5 6 6 7 8 9 10 10 10 10
18 18 18 18 19 19 19 20 21 22 22 23 22 22 22 22 22 22 22 21 21 22 22 22 22 21 21 22 23 24 24 25 25 26 25 25 25 27 27 25 24 24 23 23 23 23 22 21 20 19 17 17 16 15 14 13 12 11 10 10 9 9 8 7 7 6 6 5 5 4 3 3 3 3 4 5 6 6 6 7 8 9 9 9 9
17 17 18 18 18 18 18 19 20 21 22 23 23 23 23 23 23 23 23 23 24 24 23 23 23 24 25 25 26 27 28 28 27 26 26 25 25 25 25 26 26 25 24 24 23 23 21 20 18 18 17 16 15 15 14 13 11 10 9 9 8 7 7 6 6 6 6 5 5 4 4 4 4 4 5 5 6 7 6 6 7 8 8 8 8
16 17 17 18 18 19 19 19 19 20 21 21 22 23 23 23 22 22 22 23 23 23 23 22 23 25 27 29 30 31 31 29 28 28 27 26 25 24 25 26 26 25 25 23 22 22 21 20 19 18 17 16 14 13 12 11 10 8 8 7 7 7 7 7 7 8 8 8 7 7 6 5 5 5 5 5 6 6 6 6 7 7 7 7 7
15 16 17 17 18 19 19 20 20 20 21 21 21 22 23 22 22 22 22 22 22 22 22 22 23 25 29 31 32 32 31 29 28 29 28 26 25 25 25 26 26 26 25 23 22 21 21 20 18 17 15 14 12 11 10 9 8 7 7 7 7 8 8 8 9 9 9 9 8 7 6 5 5 5 6 5 5 5 6 6 7 7 7 7 7
14 16 16 17 17 18 18 19 20 20 21 21 21 21 21 21 22 23 23 23 22 21 20 21 23 26 28 29 30 31 30 29 29 28 27 26 25 26 26 26 25 25 23 22 21 20 18 17 16 15 13 12 11 10 9 8 8 7 8 8 8 8 8 8 8 8 8 8 8 7 6 6 6 6 5 4 4 5 6 6 6 6 6 7 7
15 16 17 17 18 18 18 18 18 18 19 19 20 21 21 22 22 23 22 23 23 23 22 21 22 24 24 24 25 27 28 28 28 27 26 26 25 25 25 24 22 21 20 19 18 16 15 14 14 12 11 10 10 9 8 8 8 8 8 8 8 7 8 8 8 8 8 8 8 7 7 7 6 6 5 5 5 5 5 5 5 5 6 6 7
15 17 18 18 19 19 19 19 18 18 18 18 19 20 21 22 22 22 23 23 23 25 26 24 22 21 21 21 22 24 26 27 28 27 26 26 25 24 23 22 20 18 17 16 15 14 13 13 12 11 10 10 9 8 8 8 8 8 8 8 7 7 7 8 8 8 8 7 7 6 6 6 6 6 7 8 7 5 5 5 5 5 5 5 6
15 17 17 18 18 18 19 20 19 19 19 19 19 21 22 22 22 22 23 23 23 25 26 25 24 23 23 22 23 26 27 28 27 27 27 26 24 23 22 20 19 18 17 15 15 13 12 11 11 10 10 9 8 8 8 8 8 8 7 7 7 7 7 7 8 7 7 6 5 5 5 5 5 6 7 7 6 5 4 4 4 4 4 5 6
15 17 17 17 17 17 18 19 20 20 21 21 20 20 22 23 23 23 24 25 25 25 25 25 25 26 25 25 25 26 27 27 27 26 25 24 23 22 20 19 17 16 15 14 13 12 11 10 10 9 9 8 8 8 8 8 7 7 7 7 7 6 7 7 7 6 5 4 4 4 4 4 5 5 4 4 4 4 4 4 4 4 4 4 5
15 17 18 18 17 17 17 18 20 21 22 22 22 22 22 23 24 25 26 27 28 27 26 25 26 26 26 26 26 27 27 26 25 24 23 22 21 19 18 16 15 14 13 12 11 10 10 9 9 8 8 8 8 8 7 7 7 7 6 6 6 6 6 6 5 5 4 4 3 3 4 4 4 4 4 4 4 4 5 4 4 4 4 5 6
14 15 16 16 17 16 17 18 19 21 22 24 24 24 24 24 25 26 28 28 28 28 27 26 26 26 27 27 27 26 25 24 23 22 20 19 18 16 15 14 13 12 11 11 10 9 9 9 8 8 8 7 7 7 7 7 7 6 6 5 5 5 5 5 4 4 4 4 4 4 4 5 5 5 4 5 5 5 5 5 4 4 5 6 7
12 12 13 14 15 16 16 17 18 20 22 23 24 24 24 25 26 27 28 27 27 27 27 27 27 27 27 26 25 24 23 21 20 19 17 16 15 14 13 12 11 11 10 10 9 8 8 8 7 7 7 8 8 8 7 7 7 6 6 5 5 5 5 5 4 4 4 4 5 5 5 6 6 5 5 5 5 5 5 5 5 5 5 6 7
12 13 12 12 13 13 14 16 18 20 21 23 24 24 24 25 26 26 26 26 26 26 27 27 27 26 26 24 23 21 20 19 18 17 15 14 14 13 12 11 10 9 9 8 8 8 7 7 7 8 8 8 8 8 7 7 7 6 6 6 5 5 5 5 5 5 5 5 5 5 6 6 5 5 5 5 5 5 6 6 6 6 7 8 8
15 16 15 15 15 15 16 17 20 21 23 25 25 25 25 26 26 25 25 25 25 25 25 25 25 24 22 22 20 19 18 16 16 15 14 13 12 11 11 10 9 9 8 8 8 8 8 7 8 8 8 8 8 8 8 7 7 7 6 6 6 6 6 6 5 5 5 5 6 6 6 6 6 5 6 6 6 6 6 6 7 7 8 9 10
20 21 21 20 20 21 21 22 22 21 23 26 27 26 26 25 25 24 24 24 23 22 22 21 20 19 18 17 17 16 15 14 13 12 12 11 11 11 10 10 9 9 9 8 8 8 8 8 8 8 8 8 8 8 8 7 7 7 7 7 7 7 6 6 6 6 6 6 7 7 7 6 6 6 7 7 7 7 8 8 8 8 9 10 10
Wind_Direction
234 232 230 228 228 228 229 230 230 231 232 232 232 233 235 235 235 236 235 235 236 235 235 235 234 234 234 235 237 239 240 241 241 241 240 241 241 241 242 241 239 239 241 241 241 242 243 244 245 246 246 244 245 246 246 246 247 246 245 243 240 239 236 229 229 246 247 243 241 241 237 232 229 228 227 225 225 225 226 227 231 237 242 245 248
236 234 232 230 230 230 231 231 231 231 231 232 232 234 235 236 236 236 235 236 235 234 235 235 234 234 234 235 238 238 239 239 241 241 240 240 240 239 239 237 237 238 239 240 241 243 243 243 245 247 246 245 245 246 246 246 245 244 243 240 239 240 237 229 225 232 242 242 237 234 232 228 226 227 226 224 225 225 225 227 231 237 242 244 247
238 237 235 234 234 233 233 233 233 233 232 232 233 234 236 237 236 235 235 236 235 234 235 235 234 234 234 236 237 238 238 239 240 241 241 240 239 238 238 237 237 237 237 238 241 242 242 242 244 246 245 243 245 246 246 245 243 243 245 243 242 243 240 231 225 226 236 240 233 228 227 223 222 225 225 224 225 226 227 230 234 238 242 244 247
239 238 237 237 238 236 235 235 234 234 234 234 235 236 237 237 236 235 235 236 235 235 236 236 235 234 234 235 236 237 238 239 241 241 241 241 239 239 239 238 238 238 238 239 241 242 241 241 242 244 243 242 244 245 244 244 244 243 245 245 244 244 242 235 228 226 231 236 229 225 226 222 220 223 223 221 222 225 227 230 234 239 242 244 247
238 237 237 237 237 237 236 236 235 235 236 236 237 237 237 237 237 236 236 235 235 235 235 234 233 233 233 234 235 237 239 240 241 241 242 243 242 240 239 239 239 240 241 242 243 242 242 242 243 244 243 242 244 245 244 244 244 243 243 245 245 243 241 237 231 227 228 231 225 221 222 221 219 222 222 219 218 220 224 229 233 236 240 243 245
237 236 235 235 236 236 236 235 235 236 237 237 238 239 238 238 237 237 236 235 234 234 233 233 232 232 233 234 235 238 240 241 241 242 244 244 242 240 240 240 241 243 244 245 246 245 246 248 249 247 244 243 243 244 244 243 244 245 245 246 247 242 237 234 231 227 226 229 226 220 219 219 217 218 221 219 217 218 221 226 232 235 238 241 242
235 234 233 233 234 235 235 235 235 236 237 238 239 239 239 238 238 238 237 235 234 234 233 233 233 233 234 235 236 237 238 239 240 241 242 242 240 239 239 240 243 245 245 246 248 248 248 249 250 248 247 247 246 245 245 245 246 248 249 247 244 239 232 230 230 226 223 223 223 220 219 218 215 216 219 217 217 221 223 226 232 235 236 239 242
233 233 232 232 234 235 235 235 235 236 237 238 238 238 237 237 237 237 237 235 234 234 234 234 234 235 235 236 237 238 239 240 239 239 239 240 240 240 240 240 242 244 244 246 248 248 250 250 250 250 251 251 250 248 249 250 249 249 248 244 240 235 229 227 226 223 219 218 218 218 215 212 209 211 213 207 209 220 225 226 232 237 238 241 244
234 232 231 233 236 237 236 236 236 236 236 236 236 236 235 235 235 235 235 235 235 235 235 235 235 235 235 235 237 237 238 238 237 238 239 239 239 240 240 240 241 242 243 244 245 245 246 248 248 249 250 249 249 250 252 253 252 251 247 241 236 231 226 224 222 217 213 213 215 215 210 207 205 204 204 206 213 223 226 225 230 236 239 244 247
235 233 232 235 237 236 236 236 236 235 234 234 234 234 234 234 234 233 233 234 234 234 235 234 234 234 233 234 234 234 235 235 236 238 239 238 239 240 240 241 242 242 243 243 242 241 242 243 243 242 241 243 246 248 250 252 253 254 253 248 241 233 226 223 219 215 211 211 215 212 206 207 210 210 213 219 224 225 224 224 228 233 237 245 251
235 236 236 237 236 235 235 235 234 234 234 234 233 233 232 231 232 232 232 233 233 232 233 232 231 232 232 232 233 232 234 234 235 237 236 236 239 242 240 241 242 240 240 241 242 241 239 236 233 230 233 240 243 243 243 245 248 250 250 250 248 243 236 228 222 219 215 216 220 217 212 215 219 219 221 225 226 224 222 223 225 227 229 235 247
235 237 239 238 235 234 234 232 232 233 232 233 232 231 230 229 229 229 228 228 228 227 228 228 229 230 230 230 231 233 234 233 232 234 234 231 234 237 237 238 240 237 235 236 238 237 233 229 224 222 231 240 239 233 230 234 240 242 244 247 247 245 242 235 231 228 224 223 224 221 220 222 225 225 225 226 227 226 224 224 226 227 228 229 235
234 237 239 237 234 232 232 231 231 232 231 230 230 227 225 225 224 224 224 223 223 224 225 226 228 227 226 227 229 230 229 227 228 230 229 227 230 232 231 231 233 232 229 227 226 225 222 221 221 223 229 230 226 222 223 224 226 230 235 239 239 237 235 234 235 237 238 236 232 231 232 230 230 233 233 230 227 224 221 224 228 229 229 232 237
231 234 237 237 233 229 228 228 229 230 228 226 224 221 220 220 219 220 219 218 219 220 221 222 222 222 223 224 226 226 224 223 224 226 226 226 227 226 222 221 223 225 222 219 217 216 216 218 219 220 220 219 218 218 215 213 214 220 227 231 233 232 231 233 236 238 241 242 240 243 245 241 237 239 239 235 231 230 230 232 234 233 234 238 244
230 231 234 236 233 227 224 224 224 224 223 220 218 218 218 218 217 216 215 215 216 216 216 217 216 216 220 220 219 220 221 219 218 218 217 216 216 215 215 217 218 218 216 214 213 212 212 212 211 209 207 207 210 208 205 206 208 213 222 227 229 230 233 236 240 241 243 244 245 247 249 247 242 240 243 245 244 243 243 244 244 243 242 245 249
231 230 231 234 232 226 222 220 218 218 215 213 214 215 216 216 215 214 214 215 215 214 214 214 213 212 215 216 214 214 215 214 212 211 209 208 209 210 213 215 214 212 210 209 207 205 203 202 200 200 196 193 193 191 194 203 207 208 214 219 223 228 233 237 239 241 242 243 244 244 244 244 243 241 245 250 250 248 244 242 243 241 237 240 247
232 231 231 233 231 227 221 217 214 212 209 209 211 213 214 214 213 213 213 214 215 216 215 215 215 215 215 215 216 217 216 214 215 217 216 215 214 213 212 212 210 209 208 204 202 202 200 196 194 193 189 185 186 188 192 198 202 204 208 212 218 223 228 233 237 238 239 239 239 239 239 241 243 244 246 247 249 248 239 232 235 232 225 229 244
232 232 234 235 233 228 221 216 213 210 207 209 210 210 211 211 212 213 216 219 221 221 221 220 221 221 221 220 219 219 217 214 213 216 218 218 216 213 211 210 208 206 202 195 194 198 197 193 192 191 189 188 189 190 191 194 196 198 202 208 215 220 224 230 234 234 233 234 236 237 239 241 243 245 246 246 247 247 240 238 241 235 226 229 242
233 235 237 237 233 228 222 216 214 212 210 212 211 209 209 209 212 216 219 221 221 219 218 218 219 220 221 222 221 220 219 217 213 213 214 212 211 209 207 204 201 197 193 188 187 191 193 192 192 190 190 191 190 190 192 193 193 194 198 205 213 220 224 227 230 231 229 230 232 234 237 240 242 244 245 245 247 249 249 249 250 244 239 241 247
241 240 238 236 233 229 223 218 216 215 214 213 211 209 209 209 212 216 215 213 213 213 212 213 214 215 214 214 215 215 215 214 211 209 206 204 203 203 201 198 196 192 189 187 188 190 192 193 193 191 188 188 189 189 189 188 188 191 196 205 212 213 209 210 218 224 227 230 232 234 236 239 241 243 245 246 249 252 252 251 250 251 252 254 255
249 243 237 235 233 230 225 221 220 219 217 214 210 209 210 210 211 210 205 203 205 207 208 207 208 209 208 207 208 207 206 206 204 201 199 197 197 198 197 197 197 195 191 191 193 194 193 193 192 188 184 185 188 185 180 179 181 186 189 193 199 197 189 189 194 200 210 222 227 229 233 236 240 243 246 249 252 254 254 253 254 256 257 257 259
251 244 239 237 234 230 227 223 221 219 217 214 209 207 209 210 210 206 201 199 200 201 201 200 199 201 203 205 207 207 208 209 208 205 204 202 201 202 202 202 203 202 197 195 196 196 193 189 186 181 178 180 182 177 174 175 176 177 177 180 186 189 181 173 174 178 188 201 212 221 227 232 239 245 248 252 257 259 261 262 263 264 263 261 260
251 244 240 238 234 232 229 224 220 216 214 212 209 207 206 205 205 202 199 196 196 196 197 197 196 197 199 203 206 207 209 209 208 207 207 206 207 208 208 208 209 208 206 201 195 189 185 181 177 174 174 175 175 173 172 173 172 171 173 179 182 181 178 176 176 178 184 193 205 217 226 235 246 254 260 266 270 272 274 276 276 274 272 270 267
249 242 239 236 234 233 229 223 218 214 212 209 207 205 203 200 198 198 197 194 191 190 192 192 191 191 192 195 198 200 202 202 202 204 204 204 205 204 204 204 204 204 206 200 188 179 176 175 173 172 172 172 172 171 170 170 169 167 169 174 174 175 180 182 181 183 188 197 208 221 234 247 259 268 276 283 286 287 288 288 288 286 283 279 276
245 240 237 234 233 231 226 221 216 212 210 207 204 202 199 195 193 193 192 191 188 185 185 187 187 185 186 188 191 194 196 197 197 199 200 201 200 197 194 194 193 192 191 186 177 172 172 173 172 170 170 169 168 167 165 163 161 160 162 165 168 173 180 182 183 186 192 199 212 227 243 258 269 279 288 294 298 302 305 304 302 300 295 289 287
245 241 236 233 232 227 220 217 213 210 209 206 204 203 198 193 191 189 189 189 188 185 183 183 184 185 186 188 189 190 192 194 195 194 194 194 193 191 187 185 184 181 177 173 170 169 169 170 170 168 167 166 166 163 159 156 154 153 156 160 162 165 170 174 177 180 182 187 196 207 229 251 271 289 302 311 315 315 315 315 314 312 308 302 297
246 240 234 231 228 221 216 212 208 207 207 204 204 203 199 196 192 188 187 187 186 185 184 183 183 185 186 186 187 187 188 190 190 189 188 187 185 184 184 182 179 175 171 168 167 167 166 166 167 165 163 162 161 159 156 154 154 154 155 155 152 152 153 155 158 162 165 169 172 180 202 236 281 307 315 320 323 324 321 319 320 319 315 310 304
247 241 235 228 222 217 214 209 205 204 204 203 202 200 198 197 196 194 193 191 188 186 185 185 186 186 184 181 179 180 185 190 189 187 185 184 183 181 181 180 178 175 172 169 166 165 164 163 162 162 162 159 157 156 155 155 156 157 158 156 155 157 160 164 170 176 179 181 184 189 202 231 279 295 300 305 313 320 321 319 321 320 317 314 309
249 241 233 223 217 214 210 207 206 204 201 202 204 203 202 201 200 201 201 200 198 196 191 189 189 189 188 186 181 179 184 191 192 190 187 187 187 185 184 182 180 177 174 171 167 164 163 162 161 161 161 159 155 154 155 155 156 158 161 163 164 168 172 174 178 181 182 183 181 176 185 232 267 281 290 301 310 315 316 318 321 321 318 315 310
250 240 229 219 213 210 207 206 206 204 200 199 199 201 205 206 206 207 207 207 208 207 205 202 199 196 195 195 194 195 197 195 191 189 189 189 188 188 187 185 182 177 173 172 171 167 164 163 163 163 163 159 156 155 155 157 158 159 161 164 167 169 170 166 164 163 163 165 162 163 186 213 234 261 281 299 310 314 317 319 320 317 314 312 306
249 239 229 221 213 208 206 205 203 202 201 197 192 190 191 197 204 210 210 208 208 209 211 212 210 207 204 201 198 199 201 195 187 186 188 188 187 187 187 183 179 177 175 175 173 169 166 164 163 164 163 160 157 157 157 158 159 157 155 155 155 155 152 145 145 148 148 147 148 158 180 197 203 227 253 274 296 305 316 321 316 310 308 303 295
249 242 234 226 217 211 207 203 200 198 196 193 189 184 177 174 179 194 204 206 205 205 207 209 209 207 206 204 199 196 195 191 185 183 183 183 184 185 183 179 177 177 179 180 175 170 169 167 163 161 161 158 156 157 157 156 156 154 151 147 141 139 139 138 139 142 142 144 150 153 161 174 186 237 284 300 298 305 316 317 312 306 299 292 288
255 252 243 231 220 212 207 201 198 195 192 190 187 183 177 171 165 162 172 188 197 202 205 208 207 205 205 204 202 198 192 185 181 179 178 178 178 178 176 177 178 178 179 180 176 171 170 167 161 160 160 157 155 154 153 152 151 148 146 143 139 138 142 144 145 149 151 156 161 161 165 177 178 302 322 321 312 307 307 304 299 292 285 282 283
260 258 252 238 224 214 208 202 198 195 193 191 188 185 183 178 168 156 150 155 167 179 190 197 201 200 196 194 193 189 182 176 175 176 176 175 175 174 171 170 173 177 182 184 177 169 166 162 157 156 157 154 152 151 150 149 149 147 145 143 141 142 146 149 152 157 161 167 177 180 182 193 221 269 295 304 300 295 292 293 291 287 282 281 283
261 257 254 243 229 219 211 205 199 196 193 192 191 189 186 179 171 163 156 152 147 144 149 162 176 182 180 177 177 177 174 171 171 172 173 172 172 171 165 161 164 173 181 183 175 167 162 158 153 153 154 152 152 153 152 152 154 153 151 150 149 149 153 156 161 169 178 189 200 205 208 224 247 269 283 289 290 290 290 291 292 289 285 284 284
261 253 249 241 231 222 216 209 202 198 194 192 191 189 183 176 171 165 160 154 146 138 134 137 146 158 163 165 167 169 168 168 168 168 169 169 169 168 163 160 162 167 169 169 166 160 157 156 154 153 156 155 154 156 157 157 158 158 157 157 157 158 162 167 173 183 193 202 211 216 224 239 254 271 282 284 284 287 289 290 290 288 285 284 284
264 250 243 238 231 224 218 212 205 201 196 191 187 184 179 175 171 165 159 153 148 143 140 138 137 138 142 149 155 157 157 158 159 159 160 161 165 169 168 164 161 159 157 156 157 155 154 156 157 157 158 157 157 159 161 161 162 162 161 161 162 165 168 173 179 188 198 206 216 226 240 255 267 275 278 280 281 282 284 287 288 286 285 284 283
266 252 242 236 228 222 219 213 205 200 194 188 184 179 175 172 170 165 159 155 151 147 146 146 144 140 138 142 148 149 148 148 149 149 153 159 166 173 172 165 160 157 154 153 156 157 156 157 159 159 159 160 163 165 166 167 168 167 164 163 167 171 175 180 188 197 205 212 216 223 232 237 245 255 261 268 275 276 277 280 279 278 280 282 280
262 253 243 234 225 219 216 210 203 196 189 184 181 177 172 169 167 163 158 156 154 153 152 151 150 148 146 147 150 151 150 149 149 151 157 165 171 174 171 165 160 158 156 157 159 160 158 158 160 162 164 167 170 170 170 169 170 169 169 173 180 189 197 204 210 216 221 222 222 223 229 233 236 240 243 251 264 268 269 271 271 271 276 279 278
254 249 242 231 221 217 213 207 201 195 188 183 180 176 172 169 167 163 159 156 155 156 156 155 154 155 155 155 157 157 155 153 154 158 162 165 168 168 166 164 162 160 160 161 161 161 161 161 164 167 169 171 173 172 171 173 175 179 187 196 202 208 213 218 222 225 227 228 228 226 225 225 226 229 235 242 254 260 261 265 267 267 272 277 279
247 243 237 226 218 214 209 203 200 195 190 185 180 176 173 171 167 163 160 157 154 154 154 153 153 156 158 159 162 164 162 158 157 160 162 162 163 163 163 163 163 162 161 162 162 163 164 165 167 170 171 171 173 174 174 181 187 194 203 209 210 213 217 220 224 228 228 229 229 223 217 218 220 222 229 239 249 253 256 261 265 267 271 277 282
237 236 231 222 214 209 204 200 198 194 188 183 179 175 172 168 165 162 158 155 153 150 147 146 150 154 158 161 164 165 163 158 156 157 158 158 160 160 160 161 161 161 161 161 162 163 165 165 167 170 171 173 177 180 183 191 197 201 208 212 211 212 216 219 223 226 225 225 225 221 219 221 219 216 220 230 240 252 257 260 266 270 270 276 283
227 229 226 219 212 205 200 196 191 185 180 177 175 172 168 163 161 159 154 151 150 148 145 144 147 150 153 158 161 160 155 152 151 153 154 154 155 156 155 156 156 157 157 158 159 162 164 165 166 171 175 179 185 188 191 197 203 206 210 213 212 214 216 216 219 221 219 219 220 218 220 226 228 231 235 236 239 252 260 257 260 266 267 274 284
218 221 219 215 209 202 196 189 183 178 175 171 166 164 162 158 155 152 149 146 146 146 145 144 146 145 144 147 152 152 149 148 149 150 150 150 151 152 153 154 156 157 157 158 160 162 165 168 170 174 180 185 191 196 200 205 209 211 212 212 212 213 213 214 217 219 217 218 218 217 222 230 234 239 242 236 232 240 251 252 255 262 267 276 285
206 209 208 205 200 194 186 179 174 169 165 160 156 155 156 154 150 148 146 144 143 143 143 143 144 143 142 144 148 148 147 148 148 148 149 149 150 152 154 155 156 157 158 160 162 165 169 174 178 181 186 192 198 203 207 210 212 213 213 212 211 212 213 214 217 218 217 217 220 225 234 240 243 246 246 232 224 234 246 252 258 265 271 277 282
199 198 196 193 188 183 176 169 165 161 157 154 150 148 149 149 147 146 145 145 144 143 142 142 143 143 144 146 148 147 147 148 148 147 149 150 151 152 154 156 157 159 161 163 167 172 175 180 185 189 194 199 203 207 212 216 216 216 214 210 208 210 211 212 214 217 222 229 236 244 253 256 258 255 243 227 224 235 244 253 262 268 272 276 276
189 188 186 181 175 169 164 159 155 153 151 149 146 143 142 143 142 143 144 144 144 143 143 142 143 144 145 147 147 147 147 147 147 147 149 151 152 155 158 159 162 165 168 170 175 179 182 186 191 195 197 202 206 210 215 218 219 219 217 210 207 209 212 213 216 223 234 244 252 257 261 262 259 254 244 234 234 239 245 255 262 265 270 273 272
169 170 171 167 160 154 151 148 145 144 143 142 139 138 138 139 139 140 141 142 143 144 144 144 143 144 145 145 145 145 145 146 147 148 151 154 157 160 164 167 170 173 176 180 184 187 188 191 196 198 202 206 209 212 215 217 218 221 219 213 211 214 219 224 230 237 248 257 259 257 259 259 259 258 253 246 245 246 250 256 262 263 266 269 268
143 141 140 140 137 135 135 136 135 136 136 134 133 133 134 136 137 139 140 141 143 145 145 144 143 144 144 144 144 145 147 148 151 153 156 159 163 167 171 175 179 183 186 190 193 194 196 199 202 204 208 211 212 214 216 216 217 220 220 218 220 225 229 235 241 248 254 258 259 260 263 261 260 263 261 254 252 254 253 254 260 264 266 268 267
129 128 127 126 123 122 123 124 126 129 131 131 130 129 129 131 134 136 138 140 141 142 143 143 143 144 145 145 147 149 151 154 156 159 162 165 170 175 179 183 187 191 194 197 200 203 205 208 210 212 213 214 215 217 219 219 219 221 222 223 227 231 235 241 248 252 257 260 259 259 260 258 256 259 260 258 259 260 260 261 264 265 266 268 266
122 121 120 118 118 119 120 119 118 121 124 125 126 126 127 128 131 135 137 138 140 141 143 143 144 145 145 147 149 152 154 157 161 165 169 174 178 182 186 190 192 195 198 202 205 209 212 216 219 221 220 220 220 221 222 223 224 225 226 228 230 234 240 245 246 247 250 251 248 247 250 253 257 259 255 250 250 254 257 260 260 257 257 259 258